Flag for Canada Weather past 2 weeks in Arviat, Nunavut, Canada

9 °F

Passing clouds.

Feels Like: -6 °F
Forecast: 2 / 13 °F
Wind: 12 mph from Southwest

Location: Arviat Airport

Current Time: Nov 29, 2015 at 3:52:23 AM

Latest Report: Nov 29, 2015 at 3:03 AM

Visibility: 9 mi

Pressure: 30.10 "Hg

Humidity: 100%

Dew point: 9 °F

Location of ArviatLocation

Historic Weather in Arviat — Graph


Arviat temperature yesterday

Maximum temperature yesterday: 19 °F (at 10:00 PM)
Minimum temperature yesterday: -20 °F (at 1:00 AM)
Average temperature yesterday: -1 °F

Past Weeks' High & Low Weather Summary

High32 °F (Nov 16, 10:00 PM)100% (Nov 14, 11:00 AM)30.39 "Hg (Nov 14, 11:00 AM)
Low-20 °F (Nov 21, 7:00 AM)68% (Nov 21, 10:00 AM)29.28 "Hg (Nov 18, 3:00 AM)
Average2 °F87%29.94 "Hg
* Reported Nov 14 2:00 AM — Nov 29 2:59 AM, Arviat, Weather by CustomWeather, © 2015

Note: Actual official high and low records may vary slightly from our data, if they occured in-between our weather recording intervals... More about our weather records


Arviat weather history for previous 24 hours

Time TempWeatherWind HumidityBarometerVisibility
2:59 AM
Sun, Nov 29
9 °FLight snow. Passing clouds.10 mph92%30.11 "Hg9 mi
2:00 AM10 °FLight snow. Ice fog.12 mph100%30.14 "Hg1 mi
1:00 AM12 °FMostly cloudy.10 mph100%30.17 "Hg9 mi
12:57 AM12 °FMostly cloudy.9 mph92%30.17 "Hg9 mi
12:00 AM14 °FLight snow. Partly cloudy.9 mph100%30.19 "Hg9 mi
11:00 PM
Sat, Nov 28
16 °FLight snow. Overcast.7 mph100%30.21 "Hg9 mi
10:55 PM16 °FLight snow. Overcast.7 mph100%30.21 "Hg9 mi
10:00 PM19 °FLight snow. Overcast.8 mph93%30.23 "Hg3 mi
9:52 PM18 °FLight snow. Overcast.7 mph100%30.23 "Hg3 mi
9:00 PM18 °FLight snow. Overcast.8 mph93%30.25 "Hg6 mi
8:00 PM16 °FLight snow. Overcast.10 mph93%30.27 "Hg9 mi
7:00 PM14 °FLight snow. Overcast.12 mph92%30.28 "Hg9 mi
6:00 PM14 °FLight snow. Overcast.12 mph92%30.29 "Hg9 mi
5:00 PM10 °FLight snow. Overcast.9 mph100%30.29 "Hg9 mi
4:00 PM10 °FLight snow. Overcast.13 mph92%30.29 "Hg9 mi
3:00 PM10 °FOvercast.10 mph92%30.28 "Hg15 mi
2:00 PM5 °FLight snow. Overcast.10 mph92%30.28 "Hg10 mi
1:00 PM3 °FMostly cloudy.8 mph92%30.28 "Hg10 mi
12:00 PM-2 °FOvercast.9 mph92%30.27 "Hg10 mi
11:00 AM-6 °FMore clouds than sun.8 mph92%30.27 "Hg10 mi
10:00 AM-11 °FMostly cloudy.10 mph84%30.27 "Hg15 mi
9:00 AM-15 °FPartly sunny.10 mph83%30.26 "Hg15 mi
8:00 AM-15 °FClear.9 mph76%30.26 "Hg9 mi
7:00 AM-17 °FLow clouds.8 mph76%30.26 "Hg9 mi
6:00 AM-17 °FClear.10 mph76%30.25 "Hg9 mi
5:00 AM-18 °FClear.10 mph83%30.25 "Hg9 mi
4:00 AM-18 °FClear.9 mph83%30.25 "Hg9 mi
3:00 AM-18 °FLow clouds.7 mph83%30.25 "Hg9 mi
Weather by CustomWeather, © 2015

See weather overviewHow to use our weather pages